Regional Weather Roundup
Issued by NWS

Home | Current Version | Previous Version | Graphics & Text | Print | Product List | Glossary On
Versions: 1 2 3 4 5 6 7 8 9 10 11 12 13 14 15 16 17 18 19 20 21 22 23 24 25 26 27 28 29 30 31 32 33 34 35 36 37 38 39 40 41 42 43 44 45 46 47 48 49 50
000
ASUS43 KMPX 230610
RWRMN
WEATHER ROUNDUP FOR MINNESOTA
NATIONAL WEATHER SERVICE TWIN CITIES/CHANHASSEN MN
100 AM CDT WED JUL 23 2014


NOTE: "FAIR" INDICATES FEW OR NO CLOUDS BELOW 12,000 FEET WITH NO
SIGNIFICANT WEATHER AND/OR OBSTRUCTIONS TO VISIBILITY. N/A MEANS
CURRENT SKY AND/OR WEATHER CONDITIONS ARE NOT AVAILABLE.

MNZ060>063-068>070-230700-
   Twin Cities Metro

CITY           SKY/WX    TMP DP  RH WIND       PRES   REMARKS
TWIN CITIES    CLEAR     70  56  61 N10       30.17R
6HR MIN TEMP:  70; 6HR MAX TEMP:  82;

ST PAUL          N/A     68  57  68 N9        30.17R
CRYSTAL        CLEAR     68  55  63 NW7       30.16S
BLAINE         CLEAR     66  57  72 NW7       30.17S
LAKEVILLE      CLEAR     66  55  68 N6        30.17S
EDEN PRAIRIE   CLEAR     68  56  65 N7        30.17R
6HR MIN TEMP:  68; 6HR MAX TEMP:  81;

SOUTH ST PAUL  CLEAR     70  55  60 N8        30.16S
LAKE ELMO      FAIR      64  57  77 N5        30.18R
$$
MNZ001>005-007-008-013>017-022>024-027-028-230700-
   Northwest Minnesota

CITY           SKY/WX    TMP DP  RH WIND       PRES   REMARKS
BEMIDJI        CLEAR     56  53  87 NW5       30.24R
HALLOCK        CLEAR     61  57  88 N3        30.25S
ROSEAU         CLEAR     59  54  82 N5        30.25R
WARROAD        CLEAR     59  55  88 NW5       30.24S
THIEF RVR FALL CLEAR     63  57  82 CALM      30.25R
CROOKSTON      CLEAR     61  57  88 CALM      30.26R
FOSSTON        CLEAR     55  54  94 CALM      30.26R
DETROIT LAKES  CLEAR     63  55  77 CALM      30.27S
MOORHEAD       CLEAR     63  63 100 CALM      30.26S
PARK RAPIDS    CLEAR     56  53  90 NW3       30.25R
$$
MNZ006-009>011-018-025>026-230700-
   North Central Minnesota

CITY           SKY/WX    TMP DP  RH WIND       PRES   REMARKS
BAUDETTE       CLEAR     61  55  81 VRB3      30.23S
FLAG ISLAND    CLEAR     64  57  77 NW12      30.22S
INTL FALLS     CLEAR     62  55  77 NE3       30.21R
6HR MIN TEMP:  57; 6HR MAX TEMP:  73;

WASKISH        CLEAR     63  55  77 NW7       30.23R
BIG FORK       CLEAR     54  52  94 NW1       30.22S
LONGVILLE      CLEAR     55  55 100 CALM      30.22S
GRAND RAPIDS   CLEAR     55  52  88 CALM      30.21S
CRANE LAKE     MOCLDY    57  55  94 CALM      30.22R
ORR            PTCLDY    57  54  88 CALM      30.19R
COOK           CLEAR     55  54  94 CALM      30.20S
$$
MNZ012-019>021-037-230700-
   Northeast Minnesota

CITY           SKY/WX    TMP DP  RH WIND       PRES   REMARKS
DULUTH         CLEAR     60  52  74 NW5       30.18S
6HR MIN TEMP:  60; 6HR MAX TEMP:  75;

ELY            PTCLDY    57  54  88 CALM      30.20R
HIBBING        CLEAR     53  50  89 W3        30.19S
DULUTH HARBOR  CLEAR     66  61  82 CALM      30.16S
TWO HARBORS    CLEAR     59  52  77 NW5       30.15S
SILVER BAY     CLEAR     55  54  94 CALM      30.16R
GRAND MARAIS     N/A     63  54  72 N7        30.15R
G MARAIS ARPRT CLEAR     55  50  82 N5        30.19S
$$
MNZ029>031-032-039>041-046>048-054>057-064-230700-
   West Central Minnesota

CITY           SKY/WX    TMP DP  RH WIND       PRES   REMARKS
FERGUS FALLS   CLEAR     61  55  82 CALM      30.25S
WHEATON        CLEAR     61  55  82 CALM      30.27S
MORRIS         CLEAR     61  57  88 N6        30.24S
ALEXANDRIA     CLEAR     63  57  81 N5        30.26R
ELBOW LAKE     FAIR      61  57  88 N5        30.25S
WADENA         CLEAR     59  54  82 NW5       30.25R
GLENWOOD       CLEAR     61  57  88 N6        30.25R
APPLETON       CLEAR     63  55  77 N5        30.23F
BENSON         CLEAR     57  55  94 CALM      30.24R
ORTONVILLE     CLEAR     63  55  77 N7        30.24F
MADISON        CLEAR     64  57  77 N6        30.24S
WILLMAR        FAIR      61  55  82 NW6       30.25R
$$
MNZ033>034-036-042>043-049>051-058-059-230700-
   Central Minnesota

CITY           SKY/WX    TMP DP  RH WIND       PRES   REMARKS
ST CLOUD       CLEAR     62  55  77 N5        30.20R
6HR MIN TEMP:  62; 6HR MAX TEMP:  81;

SAUK CENTRE    FAIR      60  55  82 NW6       30.24R
PAYNESVILLE    CLEAR     60  54  78 W7        30.23S
AITKIN         CLEAR     55  52  88 CALM      30.20S
PINE RIVER     CLEAR     55  54  94 CALM      30.26R
BRAINERD       CLEAR     56  54  93 CALM      30.22R
STAPLES        CLEAR     57  54  88 NW5       30.24R
LONG PRAIRIE   FAIR      59  52  77 NW5       30.25R
LITTLE FALLS   CLEAR     55  54  94 CALM      30.21S
LITCHFIELD     PTCLDY    64  57  77 NW6       30.22S
BUFFALO        CLEAR     67  53  60 N6        30.20R
MAPLE LAKE     CLEAR     65  55  70 NW5       30.21R
$$
MNZ037-044-045-052-053-230700-
   East Central Minnesota

CITY           SKY/WX    TMP DP  RH WIND       PRES   REMARKS
PRINCETON      CLEAR     63  55  77 NW5       30.20R
MORA           CLEAR     59  52  77 NW3       30.21S
CAMBRIDGE      CLEAR     66  54  63 N3        30.17S
RUSH CITY      PTCLDY    62  55  79 CALM      30.19S
MOOSE LAKE     CLEAR     59  54  82 NW3       30.18R
HINCKLEY       FAIR      61  55  82 N5        30.19R
CLOQUET        CLEAR     55  52  88 NW5       30.19S
MCGREGOR       CLEAR     59  54  82 CALM      30.21R
$$
MNZ071>073-080-081-089-090-097-098-230700-
   Southwest Minnesota

CITY           SKY/WX    TMP DP  RH WIND       PRES   REMARKS
MONTEVIDEO     CLEAR     63  57  82 N7        30.25R
GRANITE FALLS  CLEAR     63  56  79 NW6       30.25R
CANBY          CLEAR     59  56  89 NW5       30.26S
MARSHALL       CLEAR     61  54  77 NW8       30.24R
REDWOOD FALLS  CLEAR     65  57  75 NW8       30.22R
OLIVIA         CLEAR     61  55  82 NW6       30.22R
PIPESTONE      CLEAR     63  55  77 N5        30.26S
WINDOM         CLEAR     63  57  82 N9        30.23R
WORTHINGTON    CLEAR     61  55  82 NW7       30.25S
JACKSON        CLEAR     63  55  77 NW7       30.24R
TRACY          CLEAR     63  58  82 NW7       30.25S
SLAYTON        CLEAR     63  56  79 CALM      30.26S
$$
MNZ065>067-074>077-082>085-091>093-230700-
   South Central Minnesota

CITY           SKY/WX    TMP DP  RH WIND       PRES   REMARKS
MANKATO        CLEAR     63  54  72 N8        30.19R
NEW ULM        PTCLDY    63  57  82 NW7       30.20R
ST JAMES       CLEAR     61  55  82 NW7       30.22R
FAIRMONT       CLEAR     64  54  68 NW8       30.20R
GLENCOE        CLEAR     66  54  65 NW3       30.19R
FARIBAULT      CLEAR     66  55  68 NW3       30.18R
OWATONNA       CLEAR     61  55  82 CALM      30.18R
WASECA         CLEAR     61  54  77 N7        30.20R
ALBERT LEA     CLEAR     64  55  72 N6        30.17R
$$
MNZ078>079-086>088-094>096-230700-
   Southeast Minnesota

CITY           SKY/WX    TMP DP  RH WIND       PRES   REMARKS
ROCHESTER      CLEAR     66  57  72 N9        30.16R
6HR MIN TEMP:  65; 6HR MAX TEMP:  79;

RED WING       CLEAR     70  55  60 N7        30.14R
STANTON        CLEAR     65  55  69 CALM      30.15S
DODGE CENTER   PTCLDY    64  57  77 N6        30.17S
WINONA         CLEAR     70  63  78 NW3       30.14R
AUSTIN         CLEAR     64  57  77 NW6       30.17R
PRESTON        CLEAR     65  63  91 N7        30.15R
$$
ABBREVIATIONS USED IN REMARKS
   TC - TEMPERATURES IN CELSIUS
  WCI - WIND CHILL INDEX
   HX - HEAT INDEX
  VSB - VISIBILITY
$$


USA.gov is the U.S. government's official web portal to all federal, state and local government web resources and services.